WB9FQS Weather Reports


time (UTC)temp
C
wind
direction
speed
KPH
gust
KPH
rain 1hr
cm
rain 24hr
cm
rain mn
cm
humidity
%
barometer
mb
20260503184534 10 106 1.6 12.9 0.00 0.00 0.00 81 1012.3
20260503183025 10 149 1.6 20.9 0.00 0.00 0.00 81 1013.0
20260503181521 10 155 0.0 8.0 0.00 0.00 0.00 81 1013.4
20260503180021 10 139 1.6 8.0 0.00 0.00 0.00 79 1013.7
20260503174524 11 65 1.6 6.4 0.00 0.00 0.00 73 1014.2
20260503173015 12 49 0.0 16.1 0.00 0.00 0.00 65 1014.1
20260503171515 12 110 3.2 11.3 0.00 0.00 0.00 63 1013.9
20260503081505 5 157 0.0 0.0 0.00 0.00 0.00 71 1015.7
20260503071504 5 158 0.0 1.6 0.00 0.00 0.00 72 1016.0
20260503054600 5 140 0.0 1.6 0.00 0.00 0.00 72 1016.8
20260503053050 6 140 0.0 0.0 0.00 0.00 0.00 72 1016.8
20260503051549 6 139 0.0 0.0 0.00 0.00 0.00 73 1016.9
20260503050049 6 139 0.0 0.0 0.00 0.00 0.00 72 1017.0
20260503044552 6 138 0.0 1.6 0.00 0.00 0.00 72 1017.0
20260503043049 6 147 0.0 0.0 0.00 0.00 0.00 71 1017.1
20260503041546 5 146 0.0 0.0 0.00 0.00 0.00 71 1017.2
20260503040044 5 148 0.0 0.0 0.00 0.00 0.00 71 1017.3
20260503034547 5 148 0.0 0.0 0.00 0.00 0.00 69 1017.3
20260503033042 6 148 0.0 0.0 0.00 0.00 0.00 68 1017.3
20260503031544 6 148 0.0 0.0 0.00 0.00 0.00 68 1017.5
20260503030041 6 150 0.0 0.0 0.00 0.00 0.00 69 1017.6
20260503024542 6 144 0.0 0.0 0.00 0.00 0.00 63 1017.6
20260503023042 7 144 0.0 0.0 0.00 0.00 0.00 60 1017.6
20260503021545 7 144 0.0 0.0 0.00 0.00 0.00 58 1017.5
20260503020043 7 143 0.0 0.0 0.00 0.00 0.00 58 1017.4
20260503014538 7 144 0.0 0.0 0.00 0.00 0.00 59 1017.4
20260503013039 8 143 0.0 0.0 0.00 0.00 0.00 56 1017.3
20260503011547 8 144 0.0 0.0 0.00 0.00 0.00 56 1017.2
20260503010039 8 144 0.0 0.0 0.00 0.00 0.00 53 1017.3
20260503004536 9 144 0.0 0.0 0.00 0.00 0.00 52 1017.3
20260503003034 10 144 0.0 0.0 0.00 0.00 0.00 49 1017.4
20260503001534 10 144 0.0 0.0 0.00 0.00 0.00 49 1017.4
20260503000048 11 144 0.0 1.6 0.00 0.00 0.00 50 1017.4
20260502234533 11 175 0.0 0.0 0.00 0.00 0.00 47 1017.5
20260502233031 11 175 0.0 1.6 0.00 0.00 0.00 44 1017.6
20260502231534 11 177 0.0 6.4 0.00 0.00 0.00 46 1017.7
20260502230029 11 158 0.0 11.3 0.00 0.00 0.00 48 1017.7
20260502224528 11 177 1.6 8.0 0.00 0.00 0.00 43 1017.8
20260502223030 11 166 0.0 4.8 0.00 0.00 0.00 45 1017.9
20260502221524 11 153 0.0 4.8 0.00 0.00 0.00 46 1018.0
20260502220024 11 150 0.0 8.0 0.00 0.00 0.00 45 1018.2
20260502214523 11 129 0.0 6.4 0.00 0.00 0.00 43 1018.2
20260502213022 11 146 1.6 6.4 0.00 0.00 0.00 45 1018.2
20260502211531 11 123 0.0 4.8 0.00 0.00 0.00 44 1018.3
20260502210020 11 70 0.0 4.8 0.00 0.00 0.00 45 1018.5
20260502204521 11 175 0.0 6.4 0.00 0.00 0.00 44 1018.5
20260502203016 11 100 0.0 8.0 0.00 0.00 0.00 47 1018.7
20260502201512 10 127 0.0 4.8 0.00 0.00 0.00 46 1018.9
20260502200010 10 78 0.0 8.0 0.00 0.00 0.00 46 1019.1
20260502194507 10 178 1.6 9.7 0.00 0.00 0.00 49 1019.4
20260502193005 10 106 0.0 6.4 0.00 0.00 0.00 48 1019.6
20260502191503 9 343 0.0 8.0 0.00 0.00 0.00 46 1019.8
20260502190003 9 177 0.0 14.5 0.00 0.00 0.00 47 1020.0